Location: Mercogliano
(40.9167°N, 14.7333°E)
Time: 04:11:24
(UTC+00:00)

H-2A R/B - Pass Details

Date: 18 September 2020
Orbit: 734 x 836 km, 98.2° (Epoch: 25 October)

Event Time Altitude Azimuth Distance (km) Brightness Sun altitude
Rises 17:32:00 0° 146° (SE) 3,155 4.8 -6.0°
Reaches altitude 10° 17:34:22 10° 139° (SE) 2,243 4.0 -6.4°
Maximum altitude 17:38:57 41° 70° (ENE) 1,083 2.4 -7.3°
Drops below altitude 10° 17:43:39 10° 1° (N) 2,300 4.6 -8.2°
Sets 17:46:06 0° 355° (N) 3,246 5.4 -8.6°
